Weather Roundup
Issued by NWS Chicago, IL

Home | Current Version | Previous Version | Text Only | Print | Product List | Glossary Off
Versions: 1 2 3 4 5 6 7 8 9 10 11 12 13 14 15 16 17 18 19 20 21 22 23 24 25 26 27 28 29 30 31 32 33 34 35 36 37 38 39 40 41 42 43 44 45 46 47 48 49 50

000
NZUS59 KLOT 011858
HRRLOT

CHICAGO AREA WEATHER ROUNDUP
NATIONAL WEATHER SERVICE CHICAGO/ROMEOVILLE IL
100 PM CST SUN MAR 01 2015

NOTE: "FAIR" INDICATES FEW OR NO CLOUDS BELOW 12,000 FEET WITH NO
SIGNIFICANT WEATHER AND/OR OBSTRUCTIONS TO VISIBILITY.

* THESE STATIONS ARE NOT UNDER NWS QUALITY CONTROL. THEY ALSO MAY NOT
  REPORT WEATHER SUCH AS PRECIPITATION OR FOG.

ILZ005-006-012>014-019>023-012000-
NORTHEAST ILLINOIS

CITY           SKY/WX    TMP DP  RH WIND       PRES   REMARKS
OHARE          CLOUDY    23  16  74 W7        30.31F WCI  15
MIDWAY         NOT AVBL
AURORA         PTSUNNY   22  15  75 W6        30.33F WCI  14
WAUKEGAN       NOT AVBL
DUPAGE AIRPORT PTSUNNY   22  15  75 W8        30.31F WCI  12
WHEELING       CLOUDY    24  15  68 W7        30.33F WCI  16
NORTHERLY IS     N/A     27  18  69 CALM        N/A
$$

WIZ051-052-058>065-066-070>072-012000-
SOUTHEAST WISCONSIN

CITY           SKY/WX    TMP DP  RH WIND       PRES   REMARKS
MILWAUKEE      MOSUNNY   25  13  60 SW13      30.28F WCI  14
KENOSHA*       MOSUNNY   24  15  68 W12       30.29F WCI  13
WAUKESHA       PTSUNNY   23  12  63 W12       30.28F WCI  12
$$

INZ001>003-010>013-019-020-012000-
NORTHWEST INDIANA

CITY           SKY/WX    TMP DP  RH WIND       PRES   REMARKS
GARY*          LGT SNOW  25  18  74 W6        30.34F WCI  18
MICHIGAN CITY* NOT AVBL
RENSSELAER*    NOT AVBL
VALPARAISO     LGT SNOW  22  18  85 SW6       30.31F FOG     WCI  14
$$

LMZ740>746-012000-
SOUTHERN LAKE MICHIGAN

STATION/POSITION TIME  SKY/WX   TEMP WIND        PRES    VSBY
                                AIR  DIR/SP/G
                 (UTC)          (F)  (DEG/KT/KT) (MB)    (MI)
HARRISON CRIB    1800            22  200/  3/  4   N/A
BURNHAM HARBOR   1800            26  270/  3/  5   N/A
CALUMET HARBOR   1800            24  210/  4/  5 1025.8F
BURNS HARBOR     NOT AVBL
MICHIGAN CITY    1800            21  230/  3/  4   N/A
$$

ABBREVIATIONS USED IN REMARKS
   TC - TEMPERATURE IN CELSIUS
  WCI - WIND CHILL INDEX
   HX - HEAT INDEX
  VSB - VISIBILITY
$$



USA.gov is the U.S. government's official web portal to all federal, state and local government web resources and services.